Cortez, CO

1:08 AM MDT on March 29, 2017 (GMT -0600)
Cortez Municipal

Weather History for KCEZ - July, 2012

Change the Weather History Date:

Monday, July 23, 2012

  Actual Average Record
Temperature  
Mean Temperature 78 °F 72 °F  
Max Temperature 94 °F 90 °F 98 °F (2014)
Min Temperature 61 °F 55 °F 48 °F (2000)
Degree Days  
Heating Degree Days 0 0  
Month to date heating degree days 0 0  
Since 1 June heating degree days 11 75  
Since 1 July heating degree days 0 0  
Cooling Degree Days 13 7  
Month to date cooling degree days 214 142  
Year to date cooling degree days 379 205  
Since 1 June cooling degree days 370 200  
Growing Degree Days 27 (Base 50)    
Moisture  
Dew Point 49 °F    
Average Humidity 44    
Maximum Humidity 72    
Minimum Humidity 16    
Precipitation  
Precipitation T in 0.06 in 0.56 in (2004)
Month to date precipitation 1.01 0.69  
Year to date precipitation 3.50 6.31  
Sea Level Pressure  
Sea Level Pressure 30.02 in    
Wind  
Wind Speed 7 mph (SE)    
Max Wind Speed 22 mph    
Max Gust Speed 37 mph    
Visibility 10 miles    
Events Rain , Thunderstorm    
T = Trace of Precipitation, MM = Missing Value Source: NWS Daily Summary

Daily Weather History Graph

Daily Weather History Graph

Search for Another Location

Airport or City:

Trip Planner

Search our weather history database for the weather conditions in past years. The results will help you decide how hot, cold, wet, or windy it might be!

Date:

Astronomy

Jul. 23, 2012 Rise Set
Actual Time 6:12 AM MDT 8:29 PM MDT
Civil Twilight 5:42 AM MDT 8:58 PM MDT
Nautical Twilight 5:06 AM MDT 9:35 PM MDT
Astronomical Twilight 4:26 AM MDT 10:14 PM MDT
Moon 10:58 AM MDT (7/23) 10:54 PM MDT (7/23)
Length of Visible Light 15h 16m
Length of Day
14h 17m
Waxing Crescent, 22% of the Moon is Illuminated
Jul 23
Waxing Crescent
Jul 26
First Quarter
Aug 1
Full
Aug 9
Last Quarter
Aug 17
New

Hourly Weather History & Observations

Time (MDT) Temp. Dew Point Humidity Pressure Visibility Wind Dir Wind Speed Gust Speed Precip Events Conditions
12:53 AM 62.1 °F 53.1 °F 72% 30.00 in 10.0 mi ENE 4.6 mph - N/A   Clear
1:53 AM 62.1 °F 51.1 °F 67% 30.01 in 10.0 mi East 3.5 mph - N/A   Overcast
2:53 AM 64.0 °F 51.1 °F 63% 30.02 in 10.0 mi East 5.8 mph - N/A   Mostly Cloudy
3:42 AM 62.6 °F 53.6 °F 72% 30.29 in 10.0 mi Calm Calm - N/A Thunderstorm Scattered Clouds
3:53 AM 62.1 °F 54.0 °F 75% 30.06 in 10.0 mi SE 3.5 mph - N/A   Partly Cloudy
4:15 AM 62.6 °F 53.6 °F 72% 30.28 in 10.0 mi Calm Calm - N/A Thunderstorm Mostly Cloudy
4:30 AM 62.6 °F 53.6 °F 72% 30.28 in 10.0 mi SE 11.5 mph - 0.00 in Rain Light Rain
4:53 AM 64.0 °F 52.0 °F 65% 30.03 in 10.0 mi ENE 9.2 mph - 0.00 in   Scattered Clouds
5:53 AM 61.0 °F 52.0 °F 72% 30.02 in 10.0 mi ENE 9.2 mph - N/A   Clear
6:53 AM 61.0 °F 51.1 °F 70% 30.06 in 10.0 mi Calm Calm - N/A   Clear
7:53 AM 68.0 °F 51.1 °F 55% 30.05 in 10.0 mi Calm Calm - N/A   Clear
8:53 AM 73.9 °F 52.0 °F 46% 30.05 in 10.0 mi Variable 3.5 mph - N/A   Clear
9:53 AM 78.1 °F 50.0 °F 37% 30.04 in 10.0 mi ESE 3.5 mph - N/A   Clear
10:53 AM 81.0 °F 48.9 °F 33% 30.02 in 10.0 mi South 4.6 mph - N/A   Clear
11:53 AM 84.0 °F 48.0 °F 28% 30.00 in 10.0 mi Variable 4.6 mph - N/A   Clear
12:53 PM 87.1 °F 46.9 °F 25% 29.96 in 10.0 mi SW 6.9 mph - N/A   Clear
1:53 PM 90.0 °F 46.0 °F 22% 29.93 in 10.0 mi SW 10.4 mph - N/A   Partly Cloudy
2:53 PM 91.0 °F 45.0 °F 20% 29.90 in 10.0 mi SW 16.1 mph 21.9 mph N/A   Clear
3:53 PM 91.9 °F 43.0 °F 18% 29.88 in 10.0 mi SSW 12.7 mph 25.3 mph N/A   Clear
4:53 PM 93.0 °F 41.0 °F 16% 29.85 in 10.0 mi SSW 18.4 mph 23.0 mph N/A   Clear
5:53 PM 88.0 °F 45.0 °F 22% 29.87 in 10.0 mi SSW 13.8 mph - N/A   Clear
6:53 PM 87.1 °F 46.0 °F 24% 29.88 in 10.0 mi South 13.8 mph - N/A   Clear
7:48 PM 80.6 °F 44.6 °F 28% 30.17 in 10.0 mi ESE 12.7 mph 28.8 mph N/A   Mostly Cloudy
7:53 PM 80.1 °F 45.0 °F 29% 29.92 in 10.0 mi East 11.5 mph 24.2 mph N/A   Scattered Clouds
8:53 PM 75.0 °F 45.0 °F 34% 29.94 in 10.0 mi NE 9.2 mph - N/A   Clear
9:53 PM 71.1 °F 48.9 °F 45% 29.97 in 10.0 mi Variable 6.9 mph - N/A   Partly Cloudy
10:53 PM 73.0 °F 46.9 °F 39% 29.99 in 10.0 mi SW 3.5 mph - N/A   Mostly Cloudy
11:53 PM 73.0 °F 48.0 °F 41% 29.98 in 10.0 mi Calm Calm - N/A   Overcast